sat.trackr.live / text

‹ back to catalog

SHIJIAN-6 01B (SJ-6 01B)

NORAD 28414 · 2004-035B

PAYLOAD ACTIVE UNKNOWN

§ Identity

Operator
Country
PRC
Launch date
2004-09-08
Launch site
TAISC
Launch vehicle
Mass (kg)
RCS (m²)
2.37

External: N2YO · Heavens-Above · Gunter

§ Orbital elements

Epoch: 2026-05-25T04:46:44.793984Z

Period
95.61 min
Inclination
97.6061°
Eccentricity
0.0003946
Mean motion
15.06121779 rev/d
Perigee alt
545.3 km
Apogee alt
550.8 km
Semi-major
6,926.2 km
B*
3.4921e-4
RAAN
163.3633°
Arg perigee
200.3819°
Mean anomaly
159.7251°
Rev number
18,336

§ Raw data

SHIJIAN-6 01B (SJ-6 01B)1 28414U 04035B   26145.19912956  .00005046  00000+0  34921-3 0  99972 28414  97.6061 163.3633 0003946 200.3819 159.7251 15.06121779183360

JSON: /api/v1/satellites/28414 · /tle

For live sub-satellite position, see the globe view (requires WebGL).

§ Visibility from observer

Set your observer location to see the next 7 days of passes ≥ 10°. The values pass through the URL so the page stays shareable.

No JS? Fill the form by hand. The geolocation button needs JavaScript.